Location: Unspecified
(0.0000°N, 0.0000°E)
Time: 09:42:30
(UTC+00:00)

COSMOS-2409 - Pass Details

Date: 11 June 2023
Orbit: 1474 x 1494 km, 82.5° (Epoch: 28 September)

Event Time Altitude Azimuth Distance (km) Brightness Sun altitude
Exits shadow 02:23:03 34° 24° (NNE) 2,267 8.5 -48.2°
Drops below altitude 10° 02:27:29 10° 13° (NNE) 3,630 9.8 -47.3°
Sets 02:30:23 0° 11° (N) 4,607 10.4 -46.7°
